Dewpoint
58 58 58 58 58 59 59 60 59 59 57 56 56 56 57 57 58 57 56 56 55 54 53 52 51 49 48 47 46 46 44 43 41 39 35 35 34 32 32 30 29 27 32
52 58 59 59 59 59 59 60 60 60 61 59 57 56 56 57 57 57 56 56 55 54 53 53 52 51 49 49 47 46 46 45 44 42 33 33 33 32 32 29 27 26 29
46 48 47 48 50 57 59 60 60 60 60 59 59 57 56 56 57 57 57 56 56 55 54 53 52 52 51 50 49 48 47 46 44 44 34 33 32 33 32 31 29 29 29
41 41 42 43 44 46 47 49 50 54 57 58 59 58 57 57 57 56 56 56 56 55 55 54 53 52 52 51 49 48 47 46 45 44 37 33 33 32 32 30 29 30 30
37 38 39 40 41 41 42 43 44 45 46 48 49 52 56 57 56 56 56 55 55 55 54 54 53 51 47 50 51 48 47 46 46 43 39 34 33 31 31 31 31 32 30
34 35 35 37 37 37 38 40 41 41 42 43 44 44 44 46 42 42 43 48 51 51 51 51 50 42 44 44 45 47 47 46 44 41 37 35 33 33 33 32 31 28 26
33 33 33 34 34 35 36 37 37 37 38 39 39 40 40 42 41 41 39 41 42 43 43 42 41 40 38 41 41 41 41 42 44 39 37 36 35 33 32 32 32 31 28
30 31 32 32 33 33 34 34 35 36 36 36 37 37 37 39 39 39 38 39 39 39 39 39 39 40 38 37 38 38 38 39 41 40 40 38 37 35 34 34 33 27 24
28 30 30 31 32 32 32 33 33 34 34 34 34 35 35 35 38 38 38 36 35 36 36 36 36 37 37 38 35 35 34 34 38 40 40 40 39 37 37 33 30 28 22
27 28 29 30 31 31 32 32 33 33 33 33 33 34 34 34 36 37 37 35 34 35 35 35 34 35 37 38 36 34 35 33 33 33 35 37 37 36 35 35 31 29 24
27 28 28 29 30 31 31 31 32 32 33 32 32 32 33 33 34 36 37 35 34 34 34 34 33 35 37 38 38 34 34 33 35 33 32 31 32 32 30 30 30 30 28
26 27 27 28 29 30 31 31 32 32 31 30 30 30 30 32 33 34 35 36 37 34 34 33 33 35 36 38 37 36 36 33 32 30 29 28 28 28 29 29 28 27 26
25 25 26 26 28 29 30 30 30 29 28 28 28 28 28 29 30 32 34 36 36 34 33 34 36 35 36 36 37 36 33 32 30 29 27 27 27 27 25 24 24 24 23
21 23 25 26 26 28 28 29 29 29 27 27 27 26 27 27 28 31 33 34 34 34 33 33 34 34 35 33 33 34 32 32 30 28 27 27 26 26 24 25 23 22 20
21 23 23 24 26 27 28 28 28 28 27 26 26 25 25 25 27 30 34 35 35 34 33 32 32 31 30 30 30 30 31 31 29 28 27 26 25 24 23 24 23 22 18
21 21 23 24 25 26 25 25 27 27 26 26 26 25 25 26 28 29 30 30 30 35 33 31 30 30 29 28 28 28 29 29 28 28 27 26 25 23 22 23 24 22 19
16 17 23 24 24 25 25 24 21 22 23 23 24 24 25 25 25 25 26 25 25 24 23 27 30 29 25 28 27 28 28 29 29 28 28 27 25 24 23 23 23 22 19
17 12 23 24 24 23 24 23 22 20 17 14 18 21 21 22 22 22 21 18 13 15 16 18 19 23 26 27 28 27 28 27 26 26 25 24 24 23 23 22 22 20 17
24 14 15 24 24 23 23 22 20 17 15 11 12 17 14 18 19 18 17 8 8 9 10 12 15 18 20 22 24 25 26 25 25 24 24 23 23 23 22 21 20 18 16
23 19 9 22 21 21 22 21 19 14 8 7 9 14 10 7 6 6 7 7 7 7 8 8 10 15 17 19 19 21 21 21 21 21 21 21 21 21 19 18 17 16 14
22 22 15 21 14 2 19 19 18 14 0 -2 -0 14 17 0 1 3 5 6 6 6 7 8 9 10 14 17 18 18 17 17 17 17 17 17 17 15 15 15 14 12 11
20 12 3 5 17 3 1 -2 9 10 -2 -4 -4 -0 13 -2 -1 1 3 5 7 7 8 8 8 9 10 12 15 15 14 14 14 15 14 14 14 13 12 11 10 9 9
1 1 0 -1 -2 1 -1 -4 -4 -4 -5 -6 -7 -5 -6 -7 -6 -3 -1 3 5 6 7 7 7 8 9 9 11 13 12 12 13 14 13 12 11 10 10 8 8 7 6
-1 -1 -0 -2 -2 -4 -4 -4 -5 -3 -6 -7 -8 -7 -6 -7 -8 -6 -5 -2 1 2 5 6 7 6 8 8 9 12 12 12 13 12 12 10 9 9 8 8 7 6 6
-3 -3 -3 -2 -3 -3 -4 -5 -5 -8 -8 -6 -8 -6 -8 -8 -7 -8 -7 -5 -2 -1 1 3 5 6 6 6 6 7 10 11 11 11 11 10 8 7 7 6 5 4 3
-4 -4 -5 -6 -5 -6 -6 -5 -7 -7 -7 -8 -8 -9 -9 -9 -9 -10 -10 -7 -5 -3 -2 -1 2 3 5 8 9 9 10 11 9 9 8 8 7 6 5 3 2 1 1
Lifted_Index
-1 -1 -1 -1 -0 -0 -0 -0 -0 -0 -0 0 0 0 0 -0 0 0 1 1 2 2 3 3 4 4 4 3 3 3 2 3 4 5 5 5 6 9 11 13 15 16 17
-1 -1 -1 -1 -1 -1 -0 -0 -0 -0 -0 -0 -0 -0 -0 -0 0 0 0 1 1 1 2 2 3 3 3 3 3 2 2 2 3 4 4 5 6 9 11 13 15 16 17
-1 -1 -1 -1 -1 -1 -1 -0 -0 -0 -0 -0 -1 -1 -1 -1 -0 -0 -0 0 0 1 1 1 1 1 2 2 2 2 2 2 2 3 4 4 6 8 11 13 15 16 16
-0 -0 -0 -0 -0 -0 -0 -0 -0 -1 -1 -1 -1 -1 -1 -1 -1 -0 -0 0 0 1 1 1 1 1 1 1 1 1 1 1 1 2 3 3 5 7 10 12 14 15 15
0 0 0 0 1 1 1 1 0 -0 -0 -0 -0 -0 -0 -0 -0 -0 0 0 1 1 1 1 1 1 1 1 1 2 1 1 2 2 2 3 4 6 9 11 13 14 14
3 2 2 2 2 2 2 2 2 1 1 1 1 1 1 1 1 1 1 1 1 2 2 2 2 2 2 3 3 3 3 3 3 3 3 4 5 7 9 11 12 12 12
6 6 6 5 5 5 5 5 4 4 4 4 3 3 3 3 4 4 3 3 3 3 3 3 4 4 4 5 5 5 6 6 6 6 6 7 8 9 10 11 12 12 12
10 10 9 9 8 8 9 8 8 8 7 6 6 6 6 6 6 6 6 6 6 5 5 5 5 5 6 6 7 7 7 7 8 9 9 10 11 11 12 12 12 12 12
13 13 12 12 12 12 12 12 12 11 10 9 9 9 9 9 9 9 9 8 8 8 7 7 7 7 7 7 7 7 7 8 8 10 11 12 13 13 13 13 12 12 12
14 14 14 14 14 14 14 14 14 13 13 13 12 12 12 12 12 12 11 10 10 9 9 8 7 7 7 7 7 7 7 7 8 9 11 13 14 14 14 13 12 12 11
13 13 13 13 13 13 14 13 13 13 13 13 13 13 13 13 13 13 12 11 11 10 9 8 7 7 7 7 7 7 7 7 8 9 10 12 13 14 14 14 13 13 12
13 13 12 12 12 13 13 13 13 12 12 12 12 12 12 12 12 12 12 11 11 10 9 8 8 7 7 7 7 7 8 8 8 9 10 11 12 13 14 14 15 15 15
12 13 13 12 12 13 13 13 12 12 12 12 12 12 12 12 12 12 11 11 11 11 10 9 9 9 9 9 8 8 9 9 9 10 11 12 12 13 14 14 15 16 16
13 13 13 13 13 13 13 13 13 13 13 12 12 12 12 12 12 12 12 12 12 11 11 10 10 10 10 10 10 10 11 11 11 11 12 12 13 13 13 14 14 15 15
13 13 13 13 13 13 13 13 13 14 13 13 13 13 12 13 13 13 13 12 12 12 11 11 11 11 11 11 12 12 12 12 12 12 12 12 13 13 13 14 14 14 14
12 12 13 12 12 12 12 13 13 14 14 14 14 13 13 13 14 14 14 13 13 12 11 11 11 11 12 12 13 14 14 13 13 12 12 12 12 12 13 14 14 14 14
12 12 12 12 12 12 12 12 13 13 13 14 14 14 13 13 13 13 13 13 13 12 12 11 12 12 13 14 15 15 14 13 12 12 12 12 12 13 13 14 14 14 14
13 13 13 13 13 13 13 12 12 12 12 13 13 13 13 13 13 13 12 12 11 11 12 12 13 13 14 15 15 15 14 13 12 13 13 13 13 13 14 14 14 15 15
13 13 13 13 13 13 13 13 13 12 12 12 13 13 13 14 13 13 12 11 10 10 11 12 13 14 14 14 14 14 13 12 12 13 13 13 14 14 14 15 15 15 15
13 13 14 14 14 13 13 13 13 13 13 13 13 13 14 14 13 12 11 10 10 11 11 12 13 13 14 14 14 13 12 12 12 13 13 13 14 14 15 15 15 15 15
13 13 13 13 13 13 13 13 13 13 13 13 13 13 14 14 13 12 11 11 11 12 12 13 13 13 13 13 14 13 13 13 13 13 14 14 14 15 15 15 15 15 16
13 13 13 13 13 13 13 13 13 13 13 13 13 14 14 14 13 12 11 11 12 13 13 14 14 13 14 14 14 14 14 14 14 14 14 14 15 15 15 15 15 16 16
13 13 13 13 13 13 13 13 13 13 13 13 14 14 14 14 13 12 11 12 13 14 14 14 14 14 14 14 14 14 14 14 15 15 15 15 15 15 16 16 16 15 15
13 13 13 13 13 13 13 13 13 13 13 13 14 14 14 14 14 12 12 12 14 15 15 15 15 15 15 15 15 16 16 16 16 16 16 16 16 16 16 16 16 15 15
13 13 13 13 13 13 12 12 12 13 13 13 13 14 14 15 14 13 13 13 14 15 16 16 16 17 17 17 17 17 17 17 17 17 17 17 17 16 16 16 16 15 15
13 13 13 13 13 13 13 12 12 13 13 13 13 14 14 15 15 14 14 14 14 15 16 16 17 17 17 17 17 17 17 17 17 18 17 17 17 16 16 16 15 15 15